This is the latest recevied weather packets stored in our database for station/object KC4LZN. If no packets are shown the sender has not sent any weather packets the latest 10 day(s).
| Time | Temp. | Humidity | Pressure | Rain* | Wind** | Luminosity | Snow |
|---|---|---|---|---|---|---|---|
| 1778002309 | 27.22° C | 52% | 1017.1 hPa | 0 mm | - | 203 W/m² | - |
| 1778002007 | 27.22° C | 53% | 1017.2 hPa | 0 mm | - | 261 W/m² | - |
| 1778001704 | 27.22° C | 53% | 1017.4 hPa | 0 mm | - | 258 W/m² | - |
| 1778001403 | 27.22° C | 51% | 1017.3 hPa | 0 mm | - | 306 W/m² | - |
| 1778001101 | 27.22° C | 51% | 1017.4 hPa | 0 mm | - | 261 W/m² | - |
| 1778000798 | 28.33° C | 51% | 1017.6 hPa | 0 mm | - | 258 W/m² | - |
| 1778000494 | 27.78° C | 49% | 1017.6 hPa | 0 mm | - | 554 W/m² | - |
| 1778000190 | 27.22° C | 52% | 1017.5 hPa | 0 mm | - | 315 W/m² | - |
| 1777999886 | 26.67° C | 53% | 1017.8 hPa | 0 mm | - | 267 W/m² | - |
| 1777999581 | 27.78° C | 52% | 1017.7 hPa | 0 mm | - | 245 W/m² | - |
| 1777999279 | 27.22° C | 52% | 1017.7 hPa | 0 mm | - | 229 W/m² | - |
| 1777998977 | 27.22° C | 52% | 1017.8 hPa | 0 mm | - | 235 W/m² | - |
| 1777998675 | 27.22° C | 51% | 1017.7 hPa | 0 mm | - | 220 W/m² | - |
| 1777998372 | 27.22° C | 50% | 1017.7 hPa | 0 mm | - | 401 W/m² | - |
| 1777998070 | 27.78° C | 51% | 1017.8 hPa | 0 mm | - | 285 W/m² | - |
| 1777997766 | 27.78° C | 51% | 1017.7 hPa | 0 mm | - | 351 W/m² | - |
| 1777997464 | 27.78° C | 52% | 1017.7 hPa | 0 mm | - | 1046 W/m² | - |
| 1777997161 | 27.78° C | 50% | 1017.7 hPa | 0 mm | - | 951 W/m² | - |
| 1777996858 | 27.78° C | 55% | 1017.7 hPa | 0 mm | - | 929 W/m² | - |
| 1777996555 | 27.78° C | 53% | 1017.6 hPa | 0 mm | - | 901 W/m² | - |
| 1777996251 | 27.22° C | 52% | 1017.5 hPa | 0 mm | - | 720 W/m² | - |
| 1777995947 | 27.78° C | 51% | 1017.5 hPa | 0 mm | - | 832 W/m² | - |
| 1777995644 | 27.22° C | 53% | 1017.8 hPa | 0 mm | - | 875 W/m² | - |
| 1777995341 | 26.67° C | 56% | 1017.7 hPa | 0 mm | - | 883 W/m² | - |
| 1777995038 | 26.67° C | 56% | 1017.5 hPa | 0 mm | - | 184 W/m² | - |
* Rain latest hour (hover to see other rain measurements)
** Current wind speed in m/s (hover to see current wind gust speed)